This is the latest recevied weather packets stored in our database for station/object WP4PW. If no packets are shown the sender has not sent any weather packets the latest 1 day(s).
| Time | Temp. | Humidity | Pressure | Rain* | Wind** | Luminosity | Snow |
|---|---|---|---|---|---|---|---|
| 1777988589 | 28.89° C | 84% | 1022 hPa | 0 mm | 0 m/s | 438 W/m² | - |
| 1777988285 | 27.78° C | 87% | 1021.8 hPa | 0 mm | 0.89 m/s, 114° | 703 W/m² | - |
| 1777987982 | 27.78° C | 89% | 1021.9 hPa | 0 mm | 1.34 m/s, 101° | 201 W/m² | - |
| 1777987678 | 28.33° C | 87% | 1021.9 hPa | 0 mm | 0.45 m/s, 160° | 187 W/m² | - |
| 1777987375 | 28.33° C | 87% | 1021.6 hPa | 0 mm | 2.68 m/s, 107° | 320 W/m² | - |
| 1777987073 | 27.78° C | 87% | 1021.8 hPa | 0 mm | 1.34 m/s, 137° | 236 W/m² | - |
| 1777986770 | 27.78° C | 87% | 1022.1 hPa | 0 mm | 0.89 m/s, 176° | 207 W/m² | - |
| 1777986467 | 27.78° C | 87% | 1021.8 hPa | 0 mm | 1.79 m/s, 178° | 206 W/m² | - |
| 1777986166 | 28.33° C | 87% | 1021.7 hPa | 0 mm | 1.79 m/s, 124° | 167 W/m² | - |
| 1777985862 | 27.78° C | 88% | 1021.6 hPa | 0 mm | 2.24 m/s, 136° | 274 W/m² | - |
| 1777985560 | 28.33° C | 87% | 1021.5 hPa | 0 mm | 1.79 m/s, 171° | 169 W/m² | - |
| 1777985256 | 27.78° C | 87% | 1021.6 hPa | 0 mm | 2.68 m/s, 148° | 277 W/m² | - |
| 1777984953 | 28.33° C | 86% | 1021.5 hPa | 0 mm | 2.68 m/s, 118° | 120 W/m² | - |
| 1777984648 | 28.33° C | 85% | 1021.6 hPa | 0 mm | 1.79 m/s, 96° | 152 W/m² | - |
| 1777984346 | 28.89° C | 85% | 1021.6 hPa | 0 mm | 1.79 m/s, 148° | 169 W/m² | - |
| 1777984042 | 28.33° C | 87% | 1021.5 hPa | 0 mm | 0.89 m/s, 123° | 455 W/m² | - |
| 1777983740 | 27.22° C | 89% | 1021.5 hPa | 0 mm | 0.45 m/s, 107° | 119 W/m² | - |
| 1777983436 | 27.78° C | 88% | 1021.3 hPa | 0 mm | 1.79 m/s, 115° | 91 W/m² | - |
| 1777983133 | 27.78° C | 88% | 1021.4 hPa | 0 mm | 0.89 m/s, 113° | 98 W/m² | - |
| 1777982829 | 27.78° C | 87% | 1021.4 hPa | 0 mm | 0.89 m/s, 103° | 337 W/m² | - |
| 1777982525 | 27.78° C | 87% | 1021.2 hPa | 0 mm | 0.45 m/s, 88° | 185 W/m² | - |
| 1777982218 | 27.78° C | 87% | 1021.3 hPa | 0 mm | 1.79 m/s, 186° | 131 W/m² | - |
| 1777981916 | 28.33° C | 86% | 1021.2 hPa | 0 mm | 1.79 m/s, 116° | 288 W/m² | - |
| 1777981614 | 28.33° C | 85% | 1021.2 hPa | 0 mm | 1.79 m/s, 116° | 183 W/m² | - |
| 1777981309 | 28.33° C | 86% | 1021.2 hPa | 0 mm | 1.79 m/s, 108° | 176 W/m² | - |
* Rain latest hour (hover to see other rain measurements)
** Current wind speed in m/s (hover to see current wind gust speed)